Location: Newark
(52.2583°N, 7.1190°W)
Time: 11:40:11
(UTC+00:00)

S-56A Canister/Altair - Pass Details

Date: 26 November 2019
Orbit: 633 x 2500 km, 38.9° (Epoch: 09 December)

Event Time Altitude Azimuth Distance (km) Brightness Sun altitude
Rises 19:44:21 0° 268° (W) 4,983 12.9 -29.9°
Reaches altitude 10° 19:49:01 10° 254° (WSW) 3,615 11.7 -30.6°
Maximum altitude 19:54:56 20° 212° (SSW) 2,430 10.3 -31.5°
Enters shadow 19:57:36 16° 184° (S) 2,440 10.0 -31.9°
